NOAA 16 DEB, 41668

Orbit data source: Space-Track

NOAA 16 DEB, 41668 is space debris in SSO originally from a launch on Thu, 21 Sep 2000 UTC launched from the Air Force Western Test Range (AFWTR). Debris objects in space refer to the collection of defunct objects orbiting the Earth. Examples of debris include non-operational satellites, rocket bodies, and fragments generated from explosions, collisions, or faulty payload assembly.

Loading next visibility...
Identifier
41668, 2000-055PH
Orbit
SSO
Country
Flag of USUS
Related business
Manufacturer
Unknown
Mission
Spacecraft
Bus & Motor
Unknown
Mass
Unknown
Launch date (UTC)
2000-09-21 (26 years ago)
Launch vehicle
Unknown
Launch site
Air Force Western Test Range (AFWTR)
Object type
Payload
Rocket body
Debris
Shape & HBR
Unknown shape, 0.1 m
Radar Cross Section
Medium (>0.1 m² and <1 m²)

Expand to show TLE details & history
Last TLE update: 2 days ago

TLE from 2 days ago
0 NOAA 16 DEB
1 41668U 00055PH  26171.08344108  .00012457  00000-0  19732-2 0  9993
2 41668  98.9448  37.1293 0028080  55.5103 304.8747 14.72121213532345
Epoch: 2026-06-20T02:00Z
TLE epoch observation values (Epoch: 2026-06-20T02:00:09.309Z)
Latitude
-0.00008°
Longitude
98.78737°
Altitude
646.026 km
Speed
7.541 km/s
True Right ascension
02h 28m 31s
True Declination
0° 00' 00"
Sunlit
Object was in daylight at epoch
Visualization orbit readout
Latitude
Unknown
Longitude
Unknown
Altitude
Unknown
Speed
Unknown
Apparent Right ascension
Unknown
Apparent Declination
Unknown
Sunlit
N/A
Visualization observer readout
Local Sidereal Time
21:42:25
Azimuth
Unknown
Elevation
Unknown
Doppler factor
Unknown
Orbital elements
Apogee altitude
671.144 km
Perigee altitude
631.666 km
Semi-major axis
7,029.542 km
Eccentricity
0.00281
Inclination
98.9448°
RAAN
37.1293°
Arg. of periapsis
55.5103°
True anomaly
304.61019°
Mean anomaly
304.8747°
Eccentric anomaly
304.7425°
Mean motion
3.68258 °/min
Orbital period
97.76 mins
BSTAR
0.0019732
Loading maneuver chart data...
Computing Atmospheric mass density...
Loading historical data...
Loading historical data...
Loading historical data...
Loading historical data...
Loading historical data...
Loading historical data...
Loading historical data...

Documentation

Showing up to 5 results
|